User: anonymous
Location: Marseilles
(40.7010°N, 83.3930°W)
Time: 17:10:56
(UTC-04:00)
Language:

Cosmos 1459 Rocket - Orbit

View from above orbital plane
View from above orbital plane
View from above satellite
View from above satellite

Ground track
Ground track

The orbit data is extracted from the following two-line orbital elements,

1 14059U 83042B   14291.47641999  .00000052  00000-0  35839-4 0  4132
2 14059 082.9730 063.8452 0043941 118.3616 305.9820 13.78467616581746
Epoch (UTC): 18 October 2014 11:26:02
Eccentricity: 0.0043941
inclination: 82.9730°
perigee height: 937 km
apogee height: 1001 km
right ascension of ascending node: 63.8452°
argument of perigee: 118.3616°
revolutions per day: 13.78467616
mean anomaly at epoch: 305.9820°
orbit number at epoch: 58174

The dashed part of the orbit path shows where the satellite is in the earth's shadow,  

DLR